Tracking 20093 objects as of 16-Dec-2019
HD Live streaming from Space Station
objects crossing your sky now

COSMOS 2251 DEB

Track COSMOS 2251 DEB now!
10-day predictions


NORAD ID: 35970
Int'l Code: 1993-036AVL
Perigee: 674.4 km
Apogee: 731.0 km
Inclination: 74.0 °
Period: 98.7 minutes
Semi major axis: 7073 km
RCS: 0.0106 m2 (small)
Launch date: June 16, 1993
Source: Commonwealth of Independent States (former USSR) (CIS)
Launch site: PLESETSK MISSILE AND SPACE COMPLEX (PKMTR)

Note: This is SATELLITE DEBRIS
aabbcc
Your satellite tracking list
Your tracking list is empty




NASA's NSSDC Master Catalog

Two Line Element Set (TLE):
1 35970U 93036AVL 19349.12295143  .00000673  00000-0  14730-3 0  9992
2 35970  74.0408 126.7329 0039988  64.6829 295.8470 14.59264442546350
Source of the keplerian elements: AFSPC